[[{"header":{"parameterUnit":"m.s-1","parameterCategory":1,"la1":30.2991,"la2":30.254,"lo1":-89.0895,"lo2":-89.0444,"dy":0.0017,"dx":0.0017,"nx":28,"ny":28,"refTime":"2025-08-09T21:00:00:Z","depth":0,"parameterNumber":2,"parameterNumberName":"U-component_of_WINDS"},"data":[0,0,0,0,0,0,0,0,0,0,0,0,0,0,0,0,0,0,0,0,0,0,0,0,0,0,0,0,0,0,0,0,0,0,0,0,0,0,0,0,0,0,0,0,0,0,0,0,0,0,0,0,0,0,0,0,0,0,-2.3644,-2.3643,0,-2.3571,-2.3571,-2.357,-2.3443,-2.3441,-2.3438,-2.3436,-2.3366,-2.3366,-2.3367,0,0,0,0,0,0,0,0,0,0,0,0,0,-2.3675,-2.3675,-2.3644,-2.3643,-2.3642,-2.3572,-2.3571,-2.357,-2.3444,-2.3441,-2.3438,-2.3435,-2.3366,-2.3366,-2.3367,0,0,0,0,0,0,0,0,0,0,0,0,0,-2.3638,-2.3675,-2.3644,-2.3571,-2.3563,-2.3572,-2.3571,-2.3569,-2.3444,-2.3441,-2.3437,-2.3434,-2.3366,-2.3366,-2.3367,-2.3442,0,0,-2.3369,-2.3369,0,0,0,0,0,0,0,0,-2.3641,-2.3637,-2.3582,-2.3576,-2.3567,-2.3513,-2.3556,-2.3527,-2.3445,-2.349,-2.3436,-2.3432,-2.3418,-2.3414,-2.3408,-2.3439,-2.3436,-2.3369,-2.3369,-2.3369,-2.3369,0,0,0,0,0,0,0,-2.3643,-2.364,-2.3615,-2.3582,-2.3573,-2.3542,-2.3533,-2.355,-2.3475,-2.3485,-2.3476,-2.3469,-2.3413,-2.3408,-2.3406,-2.3435,-2.3369,-2.3369,-2.3369,-2.337,-2.3523,-2.3526,0,0,0,0,0,0,-2.3656,-2.3643,-2.3618,-2.3613,-2.3596,-2.3544,-2.3534,-2.3534,-2.3474,-2.3462,-2.3472,-2.3463,-2.3409,-2.3405,-2.3403,-2.3487,-2.3369,-2.337,-2.337,-2.3519,-2.3523,-2.3528,0,0,0,0,0,0,-2.3657,-2.3655,-2.362,-2.3625,-2.3618,-2.3548,-2.3549,-2.3534,-2.3529,-2.3464,-2.3451,-2.3481,-2.3406,-2.3402,-2.3433,-2.3482,-2.337,-2.3371,-2.3515,-2.352,-2.3526,-2.3656,0,0,0,0,0,0,-2.3659,-2.3656,-2.3684,-2.3627,-2.3619,-2.3652,-2.3552,-2.3536,-2.353,-2.3518,-2.3469,-2.3457,-2.3403,-2.3433,-2.3434,-2.3481,-2.3371,-2.351,-2.3517,-2.3524,-2.3647,-2.3665,-2.3681,0,0,0,0,0,-2.366,-2.3725,-2.3686,-2.3684,-2.3652,-2.3655,-2.365,-2.3585,-2.3535,-2.3562,-2.352,-2.3459,-2.3477,-2.3437,-2.3437,-2.3486,-2.3506,-2.3515,-2.3523,-2.3639,-2.3661,-2.368,0,0,0,0,0,0,-2.3791,-2.3716,-2.3672,-2.372,-2.3694,-2.3633,-2.3666,-2.3611,-2.3601,-2.359,-2.3511,-2.3501,-2.3542,-2.3517,-2.3474,-2.3555,-2.3482,-2.3491,-2.357,-2.3591,-2.3607,-2.3613,-2.3371,0,0,0,0,0,-2.3825,-2.3833,-2.3767,-2.3816,-2.3805,-2.3738,-2.3737,-2.3689,-2.366,-2.3649,-2.3609,-2.3585,-2.3584,-2.3586,-2.3582,-2.3642,-2.3629,-2.3675,-2.3692,-2.3706,-2.3715,-2.3744,-2.3763,-2.3555,-2.3555,-2.3555,0,0,-2.3897,-2.3856,-2.3867,-2.3841,-2.3815,-2.3826,-2.373,-2.3745,-2.3752,-2.3652,-2.3678,-2.3648,-2.3615,-2.366,-2.3678,-2.364,-2.377,-2.3717,-2.3729,-2.373,-2.3755,-2.3774,-2.3792,-2.3561,-2.356,-2.3559,0,0,-2.4032,-2.4002,-2.4038,-2.4014,-2.3976,-2.3931,-2.394,-2.3886,-2.3862,-2.3887,-2.3811,-2.3819,-2.382,-2.3799,-2.3789,-2.3914,-2.3858,-2.3915,-2.4005,-2.4034,-2.405,-2.4064,-2.4109,-2.4126,-2.3924,-2.3924,-2.3925,0,-2.4126,-2.4137,-2.4065,-2.4084,-2.4075,-2.3982,-2.4018,-2.3999,-2.3963,-2.3959,-2.3916,-2.3915,-2.3887,-2.3925,-2.3956,-2.395,-2.3958,-2.3921,-2.4053,-2.4067,-2.4079,-2.4121,-2.4138,-2.3932,-2.3931,-2.393,-2.3929,0,-2.4254,-2.4263,-2.4297,-2.4263,-2.4257,-2.4285,-2.4217,-2.4221,-2.4173,-2.4132,-2.4158,-2.412,-2.4106,-2.4112,-2.4066,-2.4144,-2.4121,-2.4068,-2.3993,-2.4108,-2.4145,-2.4161,-2.3942,-2.394,-2.3937,-2.3936,0,0,-2.4472,-2.4394,-2.4408,-2.4391,-2.4341,-2.4347,-2.4371,-2.4356,-2.436,-2.4338,-2.4356,-2.4358,-2.4307,-2.4296,-2.4246,-2.4272,-2.4373,-2.4214,-2.4212,-2.4245,-2.4456,-2.4497,-2.4517,-2.4334,-2.4337,-2.4339,-2.4459,0,-2.4596,-2.4631,-2.4566,-2.4617,-2.4624,-2.4535,-2.4555,-2.4528,-2.449,-2.4491,-2.445,-2.4453,-2.4385,-2.4377,-2.4398,-2.4356,-2.4414,-2.4347,-2.4351,-2.4352,-2.4363,-2.4537,-2.4581,-2.4696,-2.4473,-2.4475,-2.4477,0,-2.4747,-2.473,-2.4782,-2.4727,-2.4728,-2.4748,-2.4728,-2.473,-2.4696,-2.4667,-2.4653,-2.4594,-2.4614,-2.4541,-2.4568,-2.4523,-2.4521,-2.45,-2.4503,-2.4502,-2.4423,-2.4541,-2.473,-2.4748,-2.45,-2.4498,-2.4496,0,-2.4901,-2.4891,-2.492,-2.4907,-2.4845,-2.4861,-2.4836,-2.4798,-2.4793,-2.4776,-2.4772,-2.4758,-2.4751,-2.4742,-2.4681,-2.4634,-2.4715,-2.4637,-2.4692,-2.4693,-2.4714,-2.4713,-2.4907,-2.4712,-2.4711,-2.4711,-2.4711,0,-2.5047,-2.5082,-2.4987,-2.5006,-2.5042,-2.4966,-2.5004,-2.497,-2.4937,-2.4948,-2.487,-2.4882,-2.48,-2.4803,-2.4755,-2.4784,-2.4782,-2.4759,-2.4746,-2.4766,-2.4769,-2.4765,-2.4755,-2.4716,-2.4715,-2.4714,-2.4713,0,-2.5226,-2.5163,-2.5189,-2.5127,-2.5112,-2.5142,-2.5088,-2.5103,-2.5059,-2.5073,-2.5072,-2.5004,-2.5003,-2.4941,-2.4928,-2.4895,-2.4945,-2.4917,-2.4956,-2.4947,-2.5005,-2.5001,-2.5203,-2.5225,-2.5016,-2.5018,-2.502,0,-2.5324,-2.5348,-2.5288,-2.5288,-2.5266,-2.5269,-2.5262,-2.5188,-2.5184,-2.5147,-2.5166,-2.5158,-2.5148,-2.515,-2.5101,-2.509,-2.5061,-2.5133,-2.506,-2.5079,-2.5063,-2.5063,-2.5065,-2.5149,-2.5152,-2.5154,-2.5156,0,-2.5505,-2.5472,-2.5465,-2.5447,-2.5441,-2.5424,-2.5402,-2.5407,-2.5325,-2.5326,-2.5323,-2.5315,-2.5299,-2.5293,-2.5272,-2.5247,-2.5189,-2.5179,-2.5191,-2.5212,-2.5234,-2.5223,-2.4999,-2.5175,-2.5173,-2.5171,-2.517,-2.517,-2.5646,-2.5663,-2.5623,-2.5617,-2.5592,-2.5573,-2.5583,-2.5539,-2.5535,-2.5516,-2.5472,-2.5477,-2.5441,-2.5407,-2.5387,-2.5389,-2.5353,-2.5371,-2.5375,-2.5381,-2.5392,-2.5232,-2.5385,-2.5384,-2.5384,-2.5383,-2.5383,0,-2.5823,-2.5792,-2.5788,-2.5758,-2.5754,-2.5696,-2.5668,-2.5669,-2.5673,-2.5644,-2.5634,-2.5631,-2.5623,-2.5572,-2.5559,-2.5571,-2.5543,-2.557,-2.5569,-2.5564,-2.5425,-2.5416,-2.5592,-2.5592,-2.5592,-2.5592,-2.5592,-2.5592,-2.5915,-2.5941,-2.5903,-2.5916,-2.5884,-2.5886,-2.5875,-2.5857,-2.5833,-2.5832,-2.5824,-2.579,-2.5752,-2.5735,-2.5726,-2.5711,-2.571,-2.5746,-2.5722,-2.5594,-2.5574,-2.5555,-2.5546,-2.5746,-2.5746,-2.5861,-2.5862,-2.5863]},{"header":{"parameterUnit":"m.s-1","parameterCategory":1,"la1":30.2991,"la2":30.254,"lo1":-89.0895,"lo2":-89.0444,"dy":0.0017,"dx":0.0017,"nx":28,"ny":28,"refTime":"2025-08-09T21:00:00:Z","depth":0,"parameterNumber":3,"parameterNumberName":"V-component_of_WINDS"},"data":[0,0,0,0,0,0,0,0,0,0,0,0,0,0,0,0,0,0,0,0,0,0,0,0,0,0,0,0,0,0,0,0,0,0,0,0,0,0,0,0,0,0,0,0,0,0,0,0,0,0,0,0,0,0,0,0,0,0,-2.2581,-2.2582,0,-2.2653,-2.2654,-2.2655,-2.2648,-2.2646,-2.2645,-2.2644,-2.2719,-2.2722,-2.2725,0,0,0,0,0,0,0,0,0,0,0,0,0,-2.2439,-2.2442,-2.2581,-2.2582,-2.2583,-2.2653,-2.2654,-2.2655,-2.2648,-2.2646,-2.2645,-2.2644,-2.2718,-2.2722,-2.2726,0,0,0,0,0,0,0,0,0,0,0,0,0,-2.2505,-2.2442,-2.2581,-2.2588,-2.2589,-2.2653,-2.2654,-2.2655,-2.2648,-2.2646,-2.2645,-2.2643,-2.2717,-2.2722,-2.2726,-2.2788,0,0,-2.274,-2.2742,0,0,0,0,0,0,0,0,-2.2501,-2.251,-2.2586,-2.2587,-2.2589,-2.264,-2.2632,-2.27,-2.2649,-2.2626,-2.2644,-2.2642,-2.2694,-2.2701,-2.2718,-2.2792,-2.2795,-2.2741,-2.2743,-2.2745,-2.2747,0,0,0,0,0,0,0,-2.2497,-2.2507,-2.261,-2.2587,-2.2589,-2.2588,-2.2595,-2.2645,-2.2669,-2.2628,-2.2627,-2.2636,-2.2695,-2.2714,-2.272,-2.2796,-2.274,-2.2744,-2.2747,-2.2749,-2.2927,-2.2929,0,0,0,0,0,0,-2.249,-2.2503,-2.2607,-2.2612,-2.254,-2.2592,-2.26,-2.2625,-2.2668,-2.2673,-2.2637,-2.2635,-2.2707,-2.2714,-2.2722,-2.28,-2.2745,-2.275,-2.2752,-2.2925,-2.2928,-2.293,0,0,0,0,0,0,-2.2487,-2.2499,-2.2604,-2.2557,-2.2571,-2.2596,-2.2624,-2.2627,-2.2646,-2.2675,-2.268,-2.2652,-2.2706,-2.2716,-2.2773,-2.2802,-2.2752,-2.2756,-2.2923,-2.2926,-2.2929,-2.2955,0,0,0,0,0,0,-2.2483,-2.2498,-2.2522,-2.2558,-2.2573,-2.2653,-2.2626,-2.263,-2.2654,-2.2652,-2.269,-2.2695,-2.2705,-2.2766,-2.2777,-2.2808,-2.2759,-2.292,-2.2924,-2.2928,-2.2951,-2.2958,-2.2964,0,0,0,0,0,-2.2478,-2.2526,-2.2523,-2.2536,-2.2603,-2.2655,-2.2663,-2.2674,-2.2656,-2.2681,-2.27,-2.2694,-2.2797,-2.2772,-2.2784,-2.2817,-2.2919,-2.2923,-2.2928,-2.2948,-2.2957,-2.2964,0,0,0,0,0,0,-2.2493,-2.2531,-2.2528,-2.2589,-2.2619,-2.2653,-2.2684,-2.2682,-2.2717,-2.2714,-2.2726,-2.2734,-2.2792,-2.281,-2.2781,-2.288,-2.2856,-2.2863,-2.2867,-2.2875,-2.2881,-2.2877,-2.2763,0,0,0,0,0,-2.2503,-2.2541,-2.2572,-2.2623,-2.2638,-2.2659,-2.2681,-2.2687,-2.2718,-2.2731,-2.2754,-2.2785,-2.2825,-2.2851,-2.2888,-2.2953,-2.2963,-2.2982,-2.2988,-2.2993,-2.3,-2.3038,-2.3048,-2.2944,-2.2944,-2.2944,0,0,-2.2525,-2.255,-2.2574,-2.2627,-2.2651,-2.2691,-2.2669,-2.2712,-2.2743,-2.2738,-2.2793,-2.2811,-2.2847,-2.2908,-2.2936,-2.2925,-2.303,-2.2999,-2.3003,-2.3007,-2.3043,-2.3053,-2.3062,-2.2948,-2.2947,-2.2946,0,0,-2.2586,-2.2608,-2.2654,-2.2678,-2.2714,-2.2727,-2.2738,-2.2774,-2.2786,-2.2841,-2.2839,-2.2875,-2.2943,-2.2969,-2.2991,-2.3063,-2.306,-2.3075,-2.3109,-2.3145,-2.3153,-2.3161,-2.3189,-2.3198,-2.3081,-2.3081,-2.3081,0,-2.2609,-2.2669,-2.2678,-2.2722,-2.2746,-2.2743,-2.279,-2.2813,-2.286,-2.2878,-2.2864,-2.295,-2.2973,-2.3042,-2.3059,-2.3076,-2.3091,-2.3071,-2.3151,-2.3159,-2.3166,-2.3193,-2.3203,-2.3083,-2.3082,-2.3082,-2.3082,0,-2.2696,-2.2738,-2.2771,-2.2817,-2.2844,-2.289,-2.2907,-2.2934,-2.2937,-2.2952,-2.301,-2.3038,-2.3082,-2.3098,-2.3102,-2.3168,-2.316,-2.3149,-2.3124,-2.3177,-2.3203,-2.3213,-2.3085,-2.3085,-2.3084,-2.3084,0,0,-2.2769,-2.282,-2.2832,-2.2853,-2.2893,-2.2926,-2.2972,-2.3015,-2.304,-2.3072,-2.3112,-2.3169,-2.3159,-2.3185,-2.3191,-2.3222,-2.328,-2.3207,-2.3208,-2.3222,-2.3358,-2.3368,-2.338,-2.3278,-2.3279,-2.3281,-2.3356,0,-2.2836,-2.2917,-2.2927,-2.3,-2.304,-2.3037,-2.3077,-2.3107,-2.3122,-2.3159,-2.3176,-2.3218,-2.32,-2.3216,-2.3247,-2.3267,-2.3308,-2.3261,-2.3317,-2.3319,-2.331,-2.3393,-2.3403,-2.3473,-2.3366,-2.3367,-2.3368,0,-2.2925,-2.296,-2.3037,-2.3073,-2.309,-2.3126,-2.3168,-2.3202,-2.3236,-2.3245,-2.3273,-2.3276,-2.3324,-2.3297,-2.3365,-2.3333,-2.3356,-2.3369,-2.3372,-2.3379,-2.3348,-2.3405,-2.3495,-2.3506,-2.3384,-2.3383,-2.3381,0,-2.2974,-2.304,-2.3095,-2.3113,-2.3156,-2.3182,-2.3201,-2.3233,-2.3259,-2.3295,-2.3312,-2.3353,-2.3377,-2.3409,-2.3423,-2.3401,-2.3491,-2.3464,-2.3502,-2.3501,-2.3522,-2.3521,-2.362,-2.3533,-2.3533,-2.3533,-2.3533,0,-2.3049,-2.3096,-2.3118,-2.3152,-2.3206,-2.3217,-2.327,-2.3288,-2.3317,-2.3355,-2.3355,-2.3391,-2.3406,-2.3445,-2.3455,-2.3512,-2.3521,-2.3531,-2.3534,-2.3533,-2.3532,-2.355,-2.3546,-2.3536,-2.3535,-2.3535,-2.3534,0,-2.3113,-2.3129,-2.319,-2.3225,-2.3235,-2.3273,-2.3304,-2.3338,-2.3352,-2.3401,-2.3413,-2.3437,-2.3483,-2.3499,-2.3555,-2.3562,-2.3628,-2.3626,-2.3617,-2.3619,-2.3656,-2.3654,-2.3772,-2.3789,-2.3689,-2.369,-2.369,0,-2.3161,-2.3198,-2.3237,-2.3263,-2.3283,-2.3324,-2.3351,-2.3363,-2.3391,-2.3433,-2.3462,-2.3507,-2.3545,-2.3618,-2.3641,-2.3684,-2.3684,-2.3722,-2.369,-2.3688,-2.3687,-2.3686,-2.3691,-2.3729,-2.373,-2.3731,-2.3731,0,-2.3246,-2.3252,-2.329,-2.3332,-2.3364,-2.3397,-2.3429,-2.3451,-2.3468,-2.3499,-2.3546,-2.3575,-2.3632,-2.3678,-2.3722,-2.3742,-2.3741,-2.3741,-2.3753,-2.3753,-2.3748,-2.3754,-2.3636,-2.3739,-2.3738,-2.3737,-2.3737,-2.3737,-2.3306,-2.3339,-2.3372,-2.3415,-2.3441,-2.3471,-2.3505,-2.3524,-2.3563,-2.3611,-2.3615,-2.3667,-2.3701,-2.376,-2.3782,-2.3823,-2.3812,-2.3828,-2.3833,-2.3837,-2.3842,-2.3739,-2.383,-2.383,-2.383,-2.383,-2.383,0,-2.3392,-2.3414,-2.3453,-2.3499,-2.3533,-2.3527,-2.3562,-2.3592,-2.3637,-2.3668,-2.3705,-2.376,-2.3805,-2.3831,-2.3876,-2.3904,-2.3904,-2.3915,-2.3915,-2.392,-2.3847,-2.3834,-2.3914,-2.3914,-2.3914,-2.3914,-2.3914,-2.3914,-2.3442,-2.3499,-2.3509,-2.3579,-2.36,-2.365,-2.3671,-2.37,-2.3725,-2.3786,-2.3824,-2.384,-2.387,-2.3917,-2.3958,-2.3965,-2.3983,-2.3995,-2.4002,-2.3933,-2.3925,-2.3917,-2.3904,-2.3999,-2.3999,-2.4072,-2.4072,-2.4073]}]]